Regional Weather Roundup
Issued by NWS Charleston, SC

Current Version | Previous Version | Graphics & Text | Print | Product List | Glossary On
Versions: 1 2 3 4 5 6 7 8 9 10 11 12 13 14 15 16 17 18 19 20 21 22 23 24 25 26 27 28 29 30 31 32 33 34 35 36 37 38 39 40 41 42 43 44 45 46 47 48 49 50
000
ASUS42 KCHS 010527
RWRCHS

REGIONAL WEATHER ROUNDUP
NATIONAL WEATHER SERVICE CHARLESTON SC
100 AM EDT TUE SEP 01 2015

NOTE: "FAIR" INDICATES FEW OR NO CLOUDS BELOW 12,000 FEET WITH NO
SIGNIFICANT WEATHER AND/OR OBSTRUCTIONS TO VISIBILITY.

NOT ALL STATIONS ARE QUALITY CONTROLLED BY THE NATIONAL
WEATHER SERVICE. USE DATA WITH CAUTION...ESPECIALLY
DEWPOINT OBSERVATIONS.

SCZ027-030-031-034>040-042>050-010600-
...SOUTHEAST SOUTH CAROLINA...

CITY           SKY/WX    TMP DP  RH WIND       PRES   REMARKS
N CHARLESTON   PTCLDY    74  71  91 CALM      30.08F
WATERFRONT PRK   N/A     79  74  85 CALM      30.06S
MOUNT PLEASANT LGT RAIN  73  73 100 CALM      30.08F
JOHNS ISLAND   FAIR      73  73 100 CALM      30.08F
PINOPOLIS        N/A     81  73  78 VRB2      30.02S
MONCKS CORNER  FAIR      72  70  94 CALM      30.08F FOG
SUMMERVILLE    FAIR      72  72 100 CALM      30.10S
BEAUFORT MCAS  CLEAR     73  72  96 CALM      30.09S
BEAUFORT ARPT  FAIR      73  73 100 CALM      30.09S FOG
HILTON HEAD IS PTCLDY    73  73 100 CALM      30.10S
WALTERBORO     CLEAR     72  70  94 CALM      30.10S
ALLENDALE      FAIR      70  70 100 CALM      30.09S

...SOUTHERN MIDLANDS AND PEE DEE...

CITY           SKY/WX    TMP DP  RH WIND       PRES   REMARKS
GEORGETOWN     NOT AVBL
KINGSTREE      NOT AVBL
ORANGEBURG     CLEAR     72  70  93 CALM      30.10F
BARNWELL       FAIR      70  70 100 CALM      30.10S
AIKEN          FAIR      68  66  94 CALM      30.14S
MANNING        FAIR      70  70 100 CALM      30.08F
COLUMBIA       CLEAR     74  68  81 CALM      30.09S
SUMTER         CLEAR     73  70  92 CALM      30.07F
FLORENCE       CLEAR     71  69  93 W3        30.09S
MYRTLE BEACH   CLEAR     73  70  88 W7        30.09S
N MYRTLE BEACH FOG       73  72  96 CALM      30.06F VSB 1/2

$$

GAZ063-065-086>088-099>101-113>116-118-119-134>141-150-010600-
...SOUTHEAST GEORGIA...

CITY           SKY/WX    TMP DP  RH WIND       PRES   REMARKS
SAVANNAH ARPT  CLEAR     74  71  91 CALM      30.10S
HUNTER AAF     PTCLDY    74  74 100 CALM      30.07S
FORT STEWART   CLEAR     73  71  94 CALM      30.08R
STATESBORO     CLEAR     69  32  25 CALM      30.09F
SYLVANIA       CLEAR     71  71 100 CALM      30.10F FOG
CLAXTON        NOT AVBL

...CSRA...CENTRAL AND FAR SOUTHEAST GEORGIA...

CITY           SKY/WX    TMP DP  RH WIND       PRES   REMARKS
THOMSON        CLEAR     70  70 100 CALM      30.16S
AUGUSTA-BUSH   CLEAR     69  68  96 CALM      30.09S FOG
AUGUSTA-DANIEL CLEAR     79  69  71 CALM      30.11S
SWAINSBORO     FAIR     N/A N/A N/A CALM      30.11S
VIDALIA        CLEAR     72  70  94 CALM      30.10S
EASTMAN        FAIR      70  70 100 CALM      30.12S FOG
HAZLEHURST     FAIR      75  74  98 CALM      30.08F
ALMA           CLEAR     73  71  93 CALM      30.08F
WAYCROSS       PTCLDY    78  78 100 CALM      30.08F
JESUP          CLOUDY    79  77  94 NE3       30.08F
BAXLEY         FAIR      73  72  94 CALM      30.09S
BRUNSWICK      MOCLDY    75  73  94 CALM      30.08F
SAINT SIMONS   MOCLDY    80  76  87 CALM      30.08S

$$

SCZ027-028-034-036>038-045-046-048>050-GAZ119-141-010600-
...LAKE AND SUPPLEMENTAL COASTAL OBSERVATIONS...

STATION/POSITION TIME  TEMP    WIND        PRES    WAVE   SWELL
                       AIR SEA DIR/SP/G            HT/PER HT/PER/DIR
                 (UTC) (F)     (DEG/KT/KT) (MB)    (FT/S) (FT/S/D)
UPR LAKE MARION  NOT AVBL
WINYAH BAY       0400   75     290/  2     1018.0S
LAKE MURRAY      0400   78     250/  3/  5 1018.6R
ACE BASIN NERRS  NOT AVBL
FORT PULASKI     0500      83  120/  1/  1 1019.5
SAPELO ISLAND    0500   78     130/  2     1019.0S

$$

ANZ835-935-AMZ111-154-330-350-352-354-370-450-454-472-010600-
...C-MAN AND BUOY OBSERVATIONS...

STATION/POSITION TIME  TEMP    WIND        PRES    WAVE   SWELL
                       AIR SEA DIR/SP/G            HT/PER HT/PER/DIR
                 (UTC) (F)     (DEG/KT/KT) (MB)    (FT/S) (FT/S/D)
BUOY 41004       0450   81 83  250/  6/  8 1018.2F   3/ 8   3/ 8
BUOY 41008       0450   82 84  180/  4/  6 1019.1F   2/ 9   2/100/ 9
FOLLY BEACH CMAN 0500   78     290/  2/  3 1018.9F
CAPERS NEARSHORE 0408   82     350/  4/  6 1018.8R
FRIPP NEARSHORE  0400   81     350/  4/  6 1018.6S


STATION/POSITION TIME  TEMP    WIND        PRES    WAVE   SWELL
                       AIR SEA DIR/SP/G            HT/PER HT/PER/DIR
                 (UTC) (F)     (DEG/KT/KT) (MB)    (FT/S) (FT/S/D)
5E ST. MARYS GA  0421      85                N/A     2/11
FRYING PAN BUOY  0450   80 81  260/ 10/ 12 1018.3R   4/ 7   3/180/ 7
BUOY 41025       0450   81 84  180/ 12/ 16 1017.6F   4/ 5   3/100/ 9
CAPE LOOKOUT NC  0500   78     190/  5/  7 1016.8F
BUOY 41002       0450   83 84  210/ 12/ 14 1019.3F   4/ 6   3/190/ 6
BUOY 41010       0420   84 85  160/ 10/ 12 1019.0R
ST AUGUSTINE FL  0500   81 84  140/ 11/ 12 1019.0S


$$


USA.gov is the U.S. government's official web portal to all federal, state and local government web resources and services.